DLH875 ENBR-EDDH

Flight info

Callsign DLH875
Flight time 1h 10m
Altitude 37000
Route TUXIL DCT ZOL DCT RAMUD DCT ALASA M852 EKERN T905 BOGMU
Aircraft A321/M-DE2E3FGIJ1LORVWXYZ/HB2

Departure

Time 2026-04-26 16:05
Airport Bergen Airport, Flesland (ENBR)

Arrival

Time 2026-04-26 17:15
Airport Hamburg Helmut Schmidt Airport (EDDH)
Time Latitude Longitude Altitude Speed Heading
2026-04-26 15:36 60.28897 5.22535 175 ft 0 kts 83°
2026-04-26 15:54 60.28894 5.22494 175 ft 4 kts 86°
2026-04-26 15:54 60.28893 5.22440 175 ft 4 kts 84°
2026-04-26 15:54 60.28892 5.22429 175 ft 0 kts 83°
2026-04-26 15:56 60.28892 5.22431 175 ft 1 kts 90°
2026-04-26 15:56 60.28872 5.22428 175 ft 5 kts 204°
2026-04-26 15:57 60.28831 5.22421 175 ft 5 kts 206°
2026-04-26 15:57 60.28786 5.22333 170 ft 13 kts 197°
2026-04-26 15:57 60.28699 5.22352 168 ft 3 kts 171°
2026-04-26 15:57 60.28678 5.22359 168 ft 6 kts 171°
2026-04-26 15:58 60.28595 5.22385 166 ft 12 kts 171°
2026-04-26 15:58 60.28498 5.22419 164 ft 16 kts 169°
2026-04-26 15:58 60.28375 5.22463 160 ft 20 kts 170°
2026-04-26 15:58 60.28241 5.22504 156 ft 13 kts 172°
2026-04-26 15:59 60.28140 5.22541 153 ft 17 kts 173°
2026-04-26 15:59 60.28062 5.22502 152 ft 11 kts 240°
2026-04-26 15:59 60.28058 5.22462 152 ft 0 kts 263°
2026-04-26 15:59 60.28057 5.22449 152 ft 0 kts 262°
2026-04-26 16:00 60.28057 5.22447 152 ft 0 kts 262°
2026-04-26 16:00 60.28056 5.22439 152 ft 1 kts 262°
2026-04-26 16:00 60.28056 5.22436 152 ft 0 kts 262°
2026-04-26 16:03 60.28054 5.22398 153 ft 8 kts 262°
2026-04-26 16:03 60.28076 5.22244 153 ft 14 kts 334°
2026-04-26 16:04 60.28141 5.22217 153 ft 0 kts 351°
2026-04-26 16:04 60.28400 5.22130 156 ft 77 kts 351°
2026-04-26 16:05 60.29166 5.21871 160 ft 144 kts 351°
2026-04-26 16:05 60.30280 5.21524 480 ft 173 kts 349°
2026-04-26 16:05 60.31604 5.21147 770 ft 208 kts 350°
2026-04-26 16:05 60.33092 5.20686 1384 ft 232 kts 350°
2026-04-26 16:06 60.34714 5.20128 1938 ft 235 kts 349°
2026-04-26 16:06 60.36376 5.19506 2839 ft 233 kts 349°
2026-04-26 16:06 60.37954 5.18880 3856 ft 238 kts 348°
2026-04-26 16:06 60.39486 5.18242 4187 ft 214 kts 348°
2026-04-26 16:07 60.40883 5.17661 4434 ft 206 kts 349°
2026-04-26 16:07 60.42369 5.17149 4938 ft 223 kts 350°
2026-04-26 16:07 60.43931 5.16642 5689 ft 232 kts 350°
2026-04-26 16:07 60.45524 5.16151 6600 ft 229 kts 349°
2026-04-26 16:08 60.47014 5.15174 7407 ft 225 kts 327°
2026-04-26 16:08 60.48117 5.13004 8313 ft 223 kts 304°
2026-04-26 16:08 60.48692 5.10043 9006 ft 232 kts 279°
2026-04-26 16:08 60.48598 5.06739 9787 ft 239 kts 264°
2026-04-26 16:09 60.48265 5.03423 10559 ft 244 kts 254°
2026-04-26 16:09 60.47403 5.00406 11227 ft 254 kts 231°
2026-04-26 16:09 60.45948 4.98274 11910 ft 266 kts 206°
2026-04-26 16:09 60.44095 4.97507 12381 ft 286 kts 180°
2026-04-26 16:10 60.42027 4.97895 12600 ft 310 kts 176°
2026-04-26 16:10 60.39802 4.98393 12785 ft 333 kts 176°
2026-04-26 16:10 60.37417 4.98921 12972 ft 353 kts 176°
2026-04-26 16:10 60.34936 4.99459 13445 ft 363 kts 176°
2026-04-26 16:11 60.32407 4.99999 14051 ft 368 kts 176°
2026-04-26 16:11 60.29846 5.00542 14628 ft 372 kts 177°
2026-04-26 16:11 60.27260 5.01148 15230 ft 376 kts 173°
2026-04-26 16:11 60.24680 5.02144 15839 ft 379 kts 171°
2026-04-26 16:12 60.22076 5.03168 16460 ft 382 kts 171°
2026-04-26 16:12 60.19458 5.04202 17081 ft 385 kts 171°
2026-04-26 16:12 60.14254 5.07121 18266 ft 394 kts 158°
2026-04-26 16:13 60.11766 5.09290 18805 ft 397 kts 159°
2026-04-26 16:13 60.09223 5.11495 19306 ft 400 kts 159°
2026-04-26 16:13 60.06658 5.13702 19792 ft 402 kts 159°
2026-04-26 16:13 60.04071 5.15912 20286 ft 406 kts 159°
2026-04-26 16:14 60.01466 5.18131 20774 ft 409 kts 159°
2026-04-26 16:14 59.98841 5.20365 21256 ft 412 kts 160°
2026-04-26 16:14 59.93528 5.24889 22188 ft 418 kts 160°
2026-04-26 16:15 59.90846 5.27175 22646 ft 421 kts 160°
2026-04-26 16:15 59.88133 5.29477 23098 ft 425 kts 160°
2026-04-26 16:15 59.85404 5.31782 23524 ft 428 kts 160°
2026-04-26 16:16 59.79807 5.35933 24317 ft 430 kts 170°
2026-04-26 16:16 59.76866 5.36848 24686 ft 428 kts 179°
2026-04-26 16:16 59.73898 5.37322 25054 ft 429 kts 179°
2026-04-26 16:16 59.70911 5.37803 25446 ft 431 kts 179°
2026-04-26 16:17 59.67904 5.38290 25847 ft 433 kts 179°
2026-04-26 16:17 59.64892 5.38781 26227 ft 436 kts 179°
2026-04-26 16:17 59.61905 5.39362 26607 ft 438 kts 177°
2026-04-26 16:17 59.58871 5.40094 26996 ft 441 kts 176°
2026-04-26 16:18 59.55821 5.40915 27371 ft 443 kts 175°
2026-04-26 16:18 59.49660 5.42629 28106 ft 447 kts 175°
2026-04-26 16:19 59.43471 5.44255 28830 ft 450 kts 176°
2026-04-26 16:19 59.40352 5.45031 29195 ft 452 kts 176°
2026-04-26 16:19 59.35153 5.46607 29780 ft 457 kts 173°
2026-04-26 16:20 59.30960 5.48171 30241 ft 460 kts 172°
2026-04-26 16:20 59.24686 5.50645 30827 ft 464 kts 172°
2026-04-26 16:20 59.21509 5.51864 31096 ft 466 kts 172°
2026-04-26 16:21 59.18319 5.53044 31344 ft 467 kts 173°
2026-04-26 16:21 59.15122 5.54194 31589 ft 468 kts 173°
2026-04-26 16:21 59.11907 5.55330 31836 ft 470 kts 173°
2026-04-26 16:21 59.08684 5.56466 32115 ft 470 kts 173°
2026-04-26 16:22 59.05467 5.57606 32456 ft 469 kts 173°
2026-04-26 16:22 59.02264 5.58751 32793 ft 468 kts 173°
2026-04-26 16:22 58.99067 5.59901 33126 ft 467 kts 173°
2026-04-26 16:22 58.95869 5.61045 33444 ft 466 kts 173°
2026-04-26 16:23 58.92686 5.62178 33768 ft 465 kts 173°
2026-04-26 16:23 58.89510 5.63458 34075 ft 467 kts 168°
2026-04-26 16:23 58.86440 5.65559 34356 ft 471 kts 158°
2026-04-26 16:23 58.83541 5.68543 34594 ft 473 kts 152°
2026-04-26 16:24 58.80714 5.71808 34826 ft 474 kts 152°
2026-04-26 16:24 58.77880 5.75055 35049 ft 474 kts 152°
2026-04-26 16:24 58.75076 5.78250 35275 ft 474 kts 152°
2026-04-26 16:24 58.72231 5.81481 35496 ft 474 kts 152°
2026-04-26 16:25 58.69386 5.84705 35717 ft 475 kts 152°
2026-04-26 16:25 58.66538 5.87927 35936 ft 475 kts 152°
2026-04-26 16:25 58.63689 5.91143 36154 ft 475 kts 152°
2026-04-26 16:25 58.60835 5.94358 36382 ft 475 kts 152°
2026-04-26 16:26 58.57983 5.97568 36575 ft 476 kts 152°
2026-04-26 16:26 58.56091 5.99699 36723 ft 476 kts 152°
2026-04-26 16:26 58.52269 6.04001 36985 ft 476 kts 152°
2026-04-26 16:26 58.49412 6.07204 37193 ft 476 kts 152°
2026-04-26 16:27 58.43690 6.13588 37294 ft 476 kts 152°
2026-04-26 16:27 58.37981 6.19933 37301 ft 475 kts 152°
2026-04-26 16:28 58.32262 6.26277 37258 ft 476 kts 152°
2026-04-26 16:28 58.26571 6.32577 37277 ft 477 kts 152°
2026-04-26 16:29 58.20833 6.38886 37282 ft 477 kts 152°
2026-04-26 16:29 58.15078 6.45193 37282 ft 477 kts 152°
2026-04-26 16:30 58.09325 6.51483 37285 ft 478 kts 152°
2026-04-26 16:30 58.03557 6.57747 37301 ft 478 kts 153°
2026-04-26 16:31 57.97778 6.63990 37279 ft 478 kts 153°
2026-04-26 16:31 57.92002 6.70231 37297 ft 479 kts 153°
2026-04-26 16:32 57.87202 6.75412 37303 ft 479 kts 152°
2026-04-26 16:32 57.80444 6.82656 37299 ft 479 kts 153°
2026-04-26 16:33 57.74652 6.88842 37301 ft 479 kts 153°
2026-04-26 16:33 57.68892 6.94969 37292 ft 479 kts 153°
2026-04-26 16:34 57.63091 7.01117 37299 ft 480 kts 153°
2026-04-26 16:34 57.57283 7.07255 37306 ft 480 kts 153°
2026-04-26 16:35 57.51463 7.13370 37312 ft 480 kts 153°
2026-04-26 16:35 57.45647 7.19470 37320 ft 480 kts 153°
2026-04-26 16:36 57.39833 7.25558 37308 ft 480 kts 153°
2026-04-26 16:36 57.34014 7.31608 37316 ft 480 kts 153°
2026-04-26 16:37 57.28203 7.37671 37316 ft 480 kts 152°
2026-04-26 16:37 57.23448 7.42944 37321 ft 480 kts 150°
2026-04-26 16:38 57.16816 7.50546 37318 ft 480 kts 150°
2026-04-26 16:38 57.11118 7.56977 37308 ft 480 kts 151°
2026-04-26 16:39 57.05403 7.63315 37314 ft 480 kts 151°
2026-04-26 16:39 56.99673 7.69641 37339 ft 480 kts 151°
2026-04-26 16:40 56.94874 7.74939 37332 ft 481 kts 151°
2026-04-26 16:40 56.89184 7.81205 37331 ft 481 kts 151°
2026-04-26 16:41 56.83449 7.87500 37310 ft 480 kts 151°
2026-04-26 16:41 56.77725 7.93765 37321 ft 480 kts 151°
2026-04-26 16:42 56.71987 8.00006 37323 ft 480 kts 151°
2026-04-26 16:42 56.66256 8.06227 37329 ft 480 kts 151°
2026-04-26 16:43 56.60518 8.12442 37329 ft 480 kts 151°
2026-04-26 16:43 56.54777 8.18630 37321 ft 480 kts 151°
2026-04-26 16:44 56.49037 8.24787 37322 ft 479 kts 151°
2026-04-26 16:44 56.43297 8.30927 37329 ft 479 kts 152°
2026-04-26 16:45 56.37551 8.37049 37324 ft 479 kts 152°
2026-04-26 16:45 56.31800 8.43162 37331 ft 480 kts 152°
2026-04-26 16:46 56.26050 8.49243 37312 ft 479 kts 152°
2026-04-26 16:46 56.20294 8.55308 37327 ft 480 kts 152°
2026-04-26 16:47 56.14533 8.61363 37330 ft 480 kts 152°
2026-04-26 16:47 56.08798 8.67374 37324 ft 480 kts 152°
2026-04-26 16:48 56.03033 8.73390 37323 ft 480 kts 152°
2026-04-26 16:48 55.97267 8.79395 37316 ft 480 kts 152°
2026-04-26 16:49 55.91490 8.85399 37313 ft 480 kts 152°
2026-04-26 16:49 55.85711 8.91373 37329 ft 480 kts 152°
2026-04-26 16:50 55.79924 8.97317 37315 ft 480 kts 152°
2026-04-26 16:50 55.77037 9.00281 36934 ft 478 kts 152°
2026-04-26 16:50 55.74151 9.03236 36314 ft 478 kts 152°
2026-04-26 16:51 55.71274 9.06172 35756 ft 476 kts 152°
2026-04-26 16:51 55.68419 9.09088 35319 ft 472 kts 152°
2026-04-26 16:51 55.65587 9.11980 34894 ft 467 kts 152°
2026-04-26 16:51 55.62786 9.14835 34471 ft 463 kts 153°
2026-04-26 16:52 55.59997 9.17667 34001 ft 459 kts 153°
2026-04-26 16:52 55.58132 9.19558 33647 ft 457 kts 153°
2026-04-26 16:52 55.54500 9.23233 32966 ft 452 kts 153°
2026-04-26 16:52 55.51783 9.25977 32446 ft 448 kts 153°
2026-04-26 16:53 55.49080 9.28687 31948 ft 445 kts 153°
2026-04-26 16:53 55.46382 9.31366 31099 ft 450 kts 153°
2026-04-26 16:53 55.43628 9.34084 30580 ft 463 kts 153°
2026-04-26 16:53 55.40759 9.36897 30031 ft 478 kts 153°
2026-04-26 16:54 55.37846 9.39745 29836 ft 480 kts 153°
2026-04-26 16:54 55.34919 9.42600 29559 ft 481 kts 153°
2026-04-26 16:54 55.31999 9.45442 29228 ft 480 kts 153°
2026-04-26 16:54 55.29079 9.48273 28857 ft 478 kts 153°
2026-04-26 16:55 55.26172 9.51088 28469 ft 476 kts 153°
2026-04-26 16:55 55.23278 9.53884 28085 ft 473 kts 153°
2026-04-26 16:55 55.20399 9.56663 27716 ft 471 kts 153°
2026-04-26 16:55 55.17533 9.59425 27335 ft 468 kts 153°
2026-04-26 16:56 55.11852 9.64892 26543 ft 463 kts 153°
2026-04-26 16:56 55.09040 9.67633 26199 ft 460 kts 152°
2026-04-26 16:56 55.06267 9.70415 25954 ft 459 kts 152°
2026-04-26 16:57 55.03512 9.73230 25709 ft 457 kts 152°
2026-04-26 16:57 55.00776 9.76047 25461 ft 456 kts 151°
2026-04-26 16:57 54.95357 9.81597 24982 ft 453 kts 152°
2026-04-26 16:58 54.92642 9.84348 24757 ft 451 kts 152°
2026-04-26 16:58 54.90808 9.86197 24591 ft 451 kts 152°
2026-04-26 16:58 54.83992 9.89982 24017 ft 441 kts 172°
2026-04-26 16:59 54.80988 9.91046 23465 ft 438 kts 172°
2026-04-26 16:59 54.75107 9.93465 22284 ft 432 kts 168°
2026-04-26 17:00 54.69362 9.96282 20986 ft 426 kts 167°
2026-04-26 17:00 54.63721 9.99069 19940 ft 416 kts 167°
2026-04-26 17:00 54.60941 10.00395 19478 ft 413 kts 167°
2026-04-26 17:01 54.58179 10.01689 19012 ft 409 kts 168°
2026-04-26 17:01 54.55442 10.02957 18564 ft 406 kts 168°
2026-04-26 17:01 54.52726 10.04210 18023 ft 403 kts 167°
2026-04-26 17:01 54.50036 10.05466 17517 ft 400 kts 167°
2026-04-26 17:02 54.47363 10.06723 16985 ft 397 kts 167°
2026-04-26 17:02 54.44708 10.07974 16480 ft 394 kts 167°
2026-04-26 17:02 54.42074 10.09212 15965 ft 391 kts 167°
2026-04-26 17:02 54.39458 10.10436 15464 ft 388 kts 167°
2026-04-26 17:03 54.36861 10.11650 15010 ft 386 kts 167°
2026-04-26 17:03 54.34278 10.12860 14572 ft 384 kts 167°
2026-04-26 17:03 54.31706 10.14059 14132 ft 381 kts 167°
2026-04-26 17:03 54.29152 10.15242 13650 ft 378 kts 167°
2026-04-26 17:04 54.26650 10.16396 12963 ft 378 kts 167°
2026-04-26 17:04 54.24084 10.17574 12212 ft 380 kts 166°
2026-04-26 17:04 54.21529 10.18751 11697 ft 372 kts 166°
2026-04-26 17:04 54.19044 10.19897 11165 ft 367 kts 166°
2026-04-26 17:05 54.16621 10.21011 10646 ft 362 kts 166°
2026-04-26 17:05 54.14241 10.22106 10491 ft 346 kts 166°
2026-04-26 17:05 54.11970 10.23155 10361 ft 330 kts 166°
2026-04-26 17:05 54.09801 10.24155 10216 ft 317 kts 166°
2026-04-26 17:06 54.07692 10.25128 9884 ft 312 kts 166°
2026-04-26 17:06 54.05620 10.26083 9645 ft 305 kts 166°
2026-04-26 17:06 54.03569 10.27025 9457 ft 305 kts 166°
2026-04-26 17:06 54.01522 10.27962 9004 ft 305 kts 166°
2026-04-26 17:07 53.99490 10.28891 8612 ft 301 kts 166°
2026-04-26 17:07 53.97468 10.29812 8227 ft 298 kts 167°
2026-04-26 17:07 53.95480 10.30715 7768 ft 292 kts 167°
2026-04-26 17:07 53.93523 10.31600 7229 ft 291 kts 167°
2026-04-26 17:08 53.91579 10.32479 6856 ft 288 kts 167°
2026-04-26 17:08 53.89668 10.33345 6170 ft 280 kts 167°
2026-04-26 17:08 53.87808 10.34193 5488 ft 273 kts 167°
2026-04-26 17:08 53.86050 10.34999 5292 ft 249 kts 168°
2026-04-26 17:09 53.84435 10.35736 5166 ft 235 kts 168°
2026-04-26 17:09 53.83382 10.36084 5087 ft 230 kts 180°
2026-04-26 17:09 53.81356 10.35326 5005 ft 222 kts 212°
2026-04-26 17:09 53.80193 10.33654 5015 ft 220 kts 232°
2026-04-26 17:10 53.79220 10.31655 5006 ft 220 kts 232°
2026-04-26 17:10 53.78224 10.29669 4774 ft 226 kts 230°
2026-04-26 17:10 53.77188 10.27644 4342 ft 228 kts 231°
2026-04-26 17:10 53.76196 10.25638 4009 ft 215 kts 231°
2026-04-26 17:11 53.75295 10.23795 3730 ft 196 kts 231°
2026-04-26 17:11 53.74480 10.22129 3474 ft 175 kts 232°
2026-04-26 17:11 53.73711 10.20555 3239 ft 172 kts 232°
2026-04-26 17:11 53.72956 10.19011 3001 ft 170 kts 232°
2026-04-26 17:12 53.71445 10.15928 2536 ft 170 kts 234°
2026-04-26 17:12 53.70696 10.14399 2296 ft 169 kts 234°
2026-04-26 17:13 53.69186 10.11321 1832 ft 171 kts 235°
2026-04-26 17:13 53.68427 10.09788 1587 ft 166 kts 235°
2026-04-26 17:13 53.67040 10.06955 1168 ft 149 kts 237°
2026-04-26 17:14 53.66390 10.05629 948 ft 143 kts 234°
2026-04-26 17:14 53.65145 10.03096 591 ft 140 kts 234°
2026-04-26 17:14 53.64523 10.01849 388 ft 139 kts 236°
2026-04-26 17:15 53.63307 9.99364 49 ft 126 kts 230°
2026-04-26 17:15 53.62852 9.98444 44 ft 77 kts 230°
2026-04-26 17:15 53.62607 9.97950 42 ft 41 kts 230°
2026-04-26 17:16 53.62467 9.97802 41 ft 15 kts 165°
2026-04-26 17:16 53.62428 9.97907 46 ft 10 kts 86°
2026-04-26 17:16 53.62443 9.98020 47 ft 11 kts 69°
2026-04-26 17:16 53.62484 9.98136 47 ft 13 kts 49°
2026-04-26 17:17 53.62545 9.98259 47 ft 15 kts 50°
2026-04-26 17:17 53.62609 9.98389 47 ft 11 kts 50°
2026-04-26 17:17 53.62664 9.98499 47 ft 13 kts 50°
2026-04-26 17:17 53.62728 9.98629 47 ft 15 kts 50°
2026-04-26 17:18 53.62801 9.98776 47 ft 17 kts 50°
2026-04-26 17:18 53.62883 9.98942 47 ft 19 kts 50°
2026-04-26 17:18 53.62955 9.99087 47 ft 13 kts 51°
2026-04-26 17:18 53.63009 9.99197 47 ft 9 kts 51°
2026-04-26 17:19 53.63057 9.99301 47 ft 7 kts 52°
2026-04-26 17:19 53.63111 9.99420 46 ft 19 kts 52°
2026-04-26 17:19 53.63180 9.99582 45 ft 14 kts 53°
2026-04-26 17:20 53.63243 9.99705 48 ft 14 kts 43°
2026-04-26 17:20 53.63268 9.99745 49 ft 15 kts 45°
2026-04-26 17:20 53.63374 9.99953 49 ft 15 kts 50°
2026-04-26 17:20 53.63418 10.00042 49 ft 9 kts 50°
2026-04-26 17:21 53.63414 10.00145 45 ft 10 kts 141°
2026-04-26 17:21 53.63363 10.00162 48 ft 6 kts 173°
2026-04-26 17:21 53.63329 10.00211 48 ft 12 kts 101°
2026-04-26 17:21 53.63329 10.00320 48 ft 4 kts 86°
2026-04-26 17:22 53.63330 10.00341 48 ft 0 kts 86°